Location: Chenereilles
(45.4866°N, 4.0790°E)
Time: 07:31:02
(UTC+00:00)

Cosmos 1680 Rocket - Pass Details

Date: 12 November 2019
Orbit: 759 x 782 km, 74.1° (Epoch: 16 December)

Event Time Altitude Azimuth Distance (km) Brightness Sun altitude
Rises 18:48:28 0° 198° (SSW) 3,205 6.9 -26.6°
Reaches altitude 10° 18:50:49 10° 198° (SSW) 2,285 6.1 -27.0°
Enters shadow 18:54:45 53° 195° (SSW) 933 3.9 -27.7°
